{"data":{"norad_id":68436,"epoch":"2026-09-20T04:02:20.281920Z","epoch_age_seconds":97766,"freshness":"FRESH","line1":"1 68436U 26067W   26263.16829030  .00003087  00000+0  15131-3 0  9997","line2":"2 68436  97.4655 220.3454 0004416  81.1138 279.0596 15.18879628 26351","mean_motion":15.18879628,"eccentricity":0.0004416,"inclination_deg":97.4655,"raan_deg":220.3454,"arg_perigee_deg":81.1138,"mean_anomaly_deg":279.0596,"bstar":0.00015131,"rev_number":2635,"period_min":94.806722893251,"perigee_km":506.1839598761,"apogee_km":512.26687836467,"semimajor_km":6887.3624191204,"source":"CELESTRAK","updated_at":"2026-09-20T09:00:24.204005Z"}}